| time (UTC) | temp C | wind direction | speed KPH | gust KPH | rain 1hr cm | rain 24hr cm | rain mn cm | humidity % | barometer mb |
| 20260508071504 | 6 | 128 | 0.0 | 0.0 | 0.00 | 0.00 | 0.00 | 80 | 1013.1 |
| 20260508070004 | 6 | 128 | 0.0 | 0.0 | 0.00 | 0.00 | 0.00 | 81 | 1013.1 |
| 20260508064504 | 6 | 128 | 0.0 | 0.0 | 0.00 | 0.00 | 0.00 | 82 | 1013.4 |
| 20260508063021 | 6 | 128 | 0.0 | 0.0 | 0.00 | 0.00 | 0.00 | 81 | 1013.6 |
| 20260508061503 | 6 | 128 | 0.0 | 0.0 | 0.00 | 0.00 | 0.00 | 81 | 1013.6 |
| 20260508060004 | 6 | 128 | 0.0 | 0.0 | 0.00 | 0.00 | 0.00 | 80 | 1013.6 |
| 20260508054504 | 7 | 128 | 0.0 | 0.0 | 0.00 | 0.00 | 0.00 | 80 | 1013.7 |
| 20260508053004 | 7 | 128 | 0.0 | 0.0 | 0.00 | 0.00 | 0.00 | 80 | 1013.7 |
| 20260508051503 | 7 | 128 | 0.0 | 0.0 | 0.00 | 0.00 | 0.00 | 79 | 1013.7 |
| 20260508050004 | 7 | 128 | 0.0 | 0.0 | 0.00 | 0.00 | 0.00 | 79 | 1013.7 |
| 20260508044504 | 7 | 128 | 0.0 | 0.0 | 0.00 | 0.00 | 0.00 | 78 | 1013.6 |
| 20260508043004 | 7 | 128 | 0.0 | 0.0 | 0.00 | 0.00 | 0.00 | 79 | 1013.5 |
| 20260508041504 | 7 | 128 | 0.0 | 0.0 | 0.00 | 0.00 | 0.00 | 78 | 1013.5 |
| 20260508040004 | 7 | 128 | 0.0 | 0.0 | 0.00 | 0.00 | 0.00 | 77 | 1013.4 |
| 20260508033004 | 7 | 128 | 0.0 | 0.0 | 0.00 | 0.00 | 0.00 | 78 | 1013.5 |
| 20260508031504 | 7 | 128 | 0.0 | 0.0 | 0.00 | 0.00 | 0.00 | 80 | 1013.5 |
| 20260508030004 | 8 | 128 | 0.0 | 0.0 | 0.00 | 0.00 | 0.00 | 77 | 1013.4 |
| 20260508023003 | 8 | 128 | 0.0 | 0.0 | 0.00 | 0.00 | 0.00 | 77 | 1013.3 |
| 20260508021504 | 8 | 128 | 0.0 | 0.0 | 0.00 | 0.00 | 0.00 | 78 | 1013.3 |
| 20260508020004 | 8 | 128 | 0.0 | 0.0 | 0.00 | 0.00 | 0.00 | 73 | 1013.4 |
| 20260508014504 | 8 | 128 | 0.0 | 0.0 | 0.00 | 0.00 | 0.00 | 72 | 1013.3 |
| 20260508013004 | 9 | 128 | 0.0 | 0.0 | 0.00 | 0.00 | 0.00 | 72 | 1013.4 |
| 20260508011503 | 10 | 128 | 0.0 | 0.0 | 0.00 | 0.00 | 0.00 | 70 | 1013.3 |
| 20260508010004 | 11 | 128 | 0.0 | 0.0 | 0.00 | 0.00 | 0.00 | 70 | 1013.3 |
| 20260508001504 | 13 | 128 | 0.0 | 0.0 | 0.00 | 0.00 | 0.00 | 61 | 1013.0 |
| 20260508000003 | 13 | 128 | 0.0 | 0.0 | 0.00 | 0.00 | 0.00 | 57 | 1013.0 |
| 20260507234504 | 13 | 163 | 0.0 | 3.2 | 0.00 | 0.00 | 0.00 | 52 | 1012.9 |
| 20260507233004 | 14 | 85 | 0.0 | 3.2 | 0.00 | 0.00 | 0.00 | 51 | 1012.8 |
| 20260507224505 | 14 | 64 | 0.0 | 3.2 | 0.00 | 0.00 | 0.00 | 44 | 1012.7 |
| 20260507221504 | 14 | 59 | 0.0 | 12.9 | 0.00 | 0.00 | 0.00 | 46 | 1013.0 |
| 20260507220004 | 14 | 63 | 0.0 | 3.2 | 0.00 | 0.00 | 0.00 | 46 | 1013.1 |
| 20260507214504 | 14 | 46 | 0.0 | 8.0 | 0.00 | 0.00 | 0.00 | 46 | 1013.1 |
| 20260507213004 | 15 | 17 | 1.6 | 4.8 | 0.00 | 0.00 | 0.00 | 45 | 1013.2 |
| 20260507204504 | 15 | 43 | 1.6 | 11.3 | 0.00 | 0.00 | 0.00 | 47 | 1012.9 |
| 20260507203003 | 15 | 223 | 0.0 | 4.8 | 0.00 | 0.00 | 0.00 | 49 | 1012.9 |
| 20260507201503 | 15 | 42 | 1.6 | 11.3 | 0.00 | 0.00 | 0.00 | 45 | 1012.9 |
| 20260507194504 | 15 | 50 | 1.6 | 8.0 | 0.00 | 0.00 | 0.00 | 47 | 1013.2 |
| 20260507193004 | 15 | 57 | 1.6 | 12.9 | 0.00 | 0.00 | 0.00 | 48 | 1013.3 |
| 20260507191504 | 15 | 61 | 0.0 | 9.7 | 0.00 | 0.00 | 0.00 | 53 | 1013.3 |
| 20260507190005 | 15 | 39 | 1.6 | 11.3 | 0.00 | 0.00 | 0.00 | 49 | 1013.3 |
| 20260507184504 | 15 | 99 | 3.2 | 12.9 | 0.00 | 0.00 | 0.00 | 50 | 1013.2 |
| 20260507183004 | 15 | 170 | 0.0 | 12.9 | 0.00 | 0.00 | 0.00 | 53 | 1013.6 |
| 20260507181504 | 15 | 14 | 1.6 | 14.5 | 0.00 | 0.00 | 0.00 | 53 | 1013.5 |
| 20260507180003 | 15 | 248 | 0.0 | 12.9 | 0.00 | 0.00 | 0.00 | 56 | 1013.7 |
| 20260507174504 | 15 | 15 | 3.2 | 11.3 | 0.00 | 0.00 | 0.00 | 49 | 1013.8 |
| 20260507171503 | 14 | 64 | 1.6 | 12.9 | 0.00 | 0.00 | 0.00 | 58 | 1014.2 |
| 20260507170004 | 13 | 219 | 0.0 | 14.5 | 0.00 | 0.00 | 0.00 | 53 | 1014.2 |
| 20260507164503 | 13 | 94 | 1.6 | 12.9 | 0.00 | 0.00 | 0.00 | 52 | 1014.4 |
| 20260507163004 | 13 | 122 | 1.6 | 11.3 | 0.00 | 0.00 | 0.00 | 51 | 1014.6 |
| 20260507161504 | 13 | 68 | 1.6 | 11.3 | 0.00 | 0.00 | 0.00 | 52 | 1014.5 |
| 20260507153004 | 12 | 32 | 3.2 | 12.9 | 0.00 | 0.00 | 0.00 | 52 | 1014.5 |
| 20260507151504 | 12 | 27 | 1.6 | 12.9 | 0.00 | 0.00 | 0.00 | 57 | 1014.4 |
| 20260507150005 | 12 | 73 | 1.6 | 12.9 | 0.00 | 0.00 | 0.00 | 52 | 1014.4 |
| 20260507144504 | 11 | 46 | 1.6 | 11.3 | 0.00 | 0.00 | 0.00 | 59 | 1014.4 |
| 20260507143004 | 11 | 245 | 1.6 | 9.7 | 0.00 | 0.00 | 0.00 | 58 | 1014.4 |
| 20260507141503 | 10 | 47 | 1.6 | 12.9 | 0.00 | 0.00 | 0.00 | 57 | 1014.5 |
| 20260507140005 | 10 | 101 | 1.6 | 12.9 | 0.00 | 0.03 | 0.00 | 58 | 1014.5 |
| 20260507134504 | 9 | 351 | 1.6 | 11.3 | 0.00 | 0.03 | 0.00 | 62 | 1014.5 |
| 20260507133004 | 8 | 55 | 1.6 | 8.0 | 0.00 | 0.03 | 0.00 | 63 | 1014.4 |
| 20260507131503 | 8 | 62 | 1.6 | 4.8 | 0.00 | 0.03 | 0.00 | 74 | 1014.5 |
| 20260507130004 | 7 | 59 | 0.0 | 4.8 | 0.00 | 0.03 | 0.00 | 80 | 1014.5 |
| 20260507124503 | 6 | 95 | 0.0 | 0.0 | 0.00 | 0.03 | 0.00 | 84 | 1014.6 |
| 20260507123004 | 6 | 95 | 0.0 | 1.6 | 0.00 | 0.03 | 0.00 | 88 | 1014.6 |
| 20260507121504 | 5 | 96 | 0.0 | 0.0 | 0.00 | 0.03 | 0.00 | 91 | 1014.6 |
| 20260507114503 | 5 | 96 | 0.0 | 0.0 | 0.00 | 0.03 | 0.00 | 92 | 1014.6 |
| 20260507113004 | 4 | 96 | 0.0 | 0.0 | 0.00 | 0.03 | 0.00 | 92 | 1014.6 |
| 20260507111504 | 3 | 96 | 0.0 | 0.0 | 0.00 | 0.03 | 0.00 | 91 | 1014.3 |
| 20260507104504 | 3 | 96 | 0.0 | 0.0 | 0.00 | 0.03 | 0.00 | 91 | 1014.0 |
| 20260507103009 | 3 | 61 | 0.0 | 0.0 | 0.00 | 0.03 | 0.00 | 90 | 1013.9 |
| 20260507094503 | 4 | 61 | 0.0 | 0.0 | 0.00 | 0.03 | 0.00 | 91 | 1013.9 |
| 20260507093003 | 5 | 61 | 0.0 | 0.0 | 0.00 | 0.03 | 0.00 | 91 | 1013.8 |
| 20260507091504 | 5 | 61 | 0.0 | 0.0 | 0.00 | 0.03 | 0.00 | 91 | 1013.7 |
| 20260507084503 | 5 | 61 | 0.0 | 0.0 | 0.00 | 0.03 | 0.00 | 91 | 1013.5 |
| 20260507083004 | 5 | 61 | 0.0 | 0.0 | 0.00 | 0.03 | 0.00 | 90 | 1013.4 |
| 20260507081504 | 5 | 61 | 0.0 | 0.0 | 0.00 | 0.03 | 0.00 | 90 | 1013.3 |
| 20260507074503 | 5 | 61 | 0.0 | 0.0 | 0.00 | 0.10 | 0.00 | 90 | 1013.3 |
| 20260507073004 | 5 | 61 | 0.0 | 0.0 | 0.00 | 0.13 | 0.00 | 90 | 1013.4 |